Location: Newark
(7.0858°N, 171.3717°E)
Time: 07:30:40
(UTC+00:00)

Courier 1B - Pass Details

Date: 05 December 2020
Orbit: 962 x 1209 km, 28.3° (Epoch: 20 January)

Event Time Altitude Azimuth Distance (km) Brightness Sun altitude
Rises 02:37:16 0° 212° (SSW) 3,855 11.3 46.2°
Reaches altitude 10° 02:40:58 10° 195° (SSW) 2,850 10.7 45.6°
Maximum altitude 02:45:39 19° 152° (SSE) 2,201 9.7 44.7°
Drops below altitude 10° 02:50:09 10° 108° (ESE) 2,743 9.7 43.9°
Sets 02:53:36 0° 91° (E) 3,662 10.2 43.2°
